Temperature
10 12 11 11 11 11 11 11 12 12 11 11 12 12 12 12 11 11 11 10 10 10 10 10 10 10 10 10 11 11 11 11 10 10 10 10 10 10 10 10 10 10 10 10
11 11 10 10 10 10 10 11 12 11 10 11 11 12 13 12 11 11 10 10 10 9 9 10 10 10 10 10 10 10 10 10 10 10 10 10 10 10 10 10 10 10 10 10
11 10 9 9 10 10 10 11 11 11 10 10 11 13 13 12 11 10 10 10 10 9 9 9 10 10 10 10 10 10 10 10 10 10 10 10 9 9 10 10 10 10 9 9
10 9 9 10 10 10 11 10 9 9 11 12 11 13 14 12 12 11 11 10 9 9 9 9 10 10 10 10 10 10 10 10 10 9 9 9 9 9 9 9 9 9 9 9
9 9 9 10 9 9 10 9 9 9 10 11 11 12 14 12 12 12 11 10 9 9 9 9 9 10 10 10 10 10 10 9 9 9 9 9 9 9 9 9 9 9 9 9
9 8 8 9 8 8 8 9 9 9 10 11 11 12 14 13 12 12 11 10 9 9 9 9 9 9 10 10 9 9 9 9 9 9 9 9 8 8 8 8 8 8 8 8
9 9 8 8 9 9 9 10 11 11 11 12 10 11 13 13 11 11 11 10 9 8 8 9 9 9 9 9 9 9 9 9 9 9 8 8 8 8 8 8 8 8 8 8
10 10 8 8 9 9 9 10 11 12 12 13 10 11 13 11 10 9 9 9 8 8 8 8 9 9 9 9 9 9 9 9 8 8 8 8 8 8 8 8 7 7 7 7
10 10 8 7 7 9 9 9 9 10 9 11 13 12 12 11 10 10 9 8 8 8 8 8 8 9 9 9 9 9 9 8 8 8 8 8 7 7 7 7 7 7 7 7
9 9 8 7 7 7 8 9 9 9 10 12 13 13 13 12 11 11 10 9 8 8 8 8 8 8 8 9 9 8 8 8 8 8 8 7 7 7 7 7 6 6 6 6
8 8 8 8 8 9 8 8 9 9 10 11 12 13 13 12 11 11 10 9 8 8 8 8 8 8 8 8 8 8 8 8 8 7 7 7 7 7 6 6 6 6 6 6
7 8 8 8 7 7 8 9 9 9 9 9 10 12 11 11 10 10 9 8 8 7 7 8 8 8 8 8 8 8 7 7 7 7 7 7 6 6 6 6 6 6 5 5
6 7 8 9 7 6 7 7 7 8 8 8 9 12 10 9 9 8 8 8 7 7 7 7 7 7 7 7 7 7 7 7 6 6 6 6 6 6 6 5 5 5 5 5
7 7 8 10 10 8 7 7 6 7 7 8 9 11 11 10 10 9 8 7 7 7 7 7 7 7 7 7 7 7 6 6 6 6 6 5 5 5 5 5 5 4 4 4
6 7 7 7 7 7 7 7 6 6 8 8 9 9 11 11 10 9 8 7 6 6 6 6 6 6 6 6 6 6 6 6 5 5 5 5 5 5 4 4 4 4 4 4
6 6 6 6 6 6 6 7 7 7 7 7 8 9 10 9 8 7 7 6 6 6 6 6 6 6 6 6 6 5 5 5 5 5 5 5 4 4 4 4 4 4 3 3
5 5 5 7 6 5 6 8 7 7 7 7 8 9 9 8 7 7 6 6 6 6 6 6 6 5 5 5 5 5 5 5 5 5 4 4 4 4 4 3 3 3 3 3
4 4 5 5 5 5 9 8 7 7 7 7 7 7 7 7 6 5 5 5 5 5 5 5 5 5 5 5 5 4 4 4 4 4 4 4 3 3 3 3 3 3 3 3
4 4 4 5 5 7 8 7 6 6 6 7 6 7 6 5 5 5 5 5 5 5 5 5 5 5 5 4 4 4 4 4 4 4 3 3 3 3 3 3 3 2 2 2
2 3 4 4 4 6 8 6 5 6 6 6 5 6 5 4 6 7 6 5 5 5 5 4 4 4 4 4 4 4 3 3 3 3 3 3 3 2 2 2 2 2 2 2
2 2 3 4 4 6 7 5 5 6 7 5 4 4 4 5 6 5 5 4 4 4 4 4 4 4 3 3 3 3 3 3 3 3 2 2 2 2 2 2 2 2 1 1
4 3 3 4 4 5 5 4 5 6 5 4 4 4 4 4 4 4 4 4 4 3 3 3 3 3 3 3 2 2 2 2 2 2 2 2 2 1 1 1 1 1 1 1
4 5 5 5 6 6 4 4 4 4 4 4 4 4 3 3 3 3 3 3 3 3 3 3 2 2 2 2 2 2 2 2 2 1 1 1 1 1 1 1 1 1 1 0
3 3 3 3 5 5 4 3 4 4 3 3 3 3 3 3 3 2 2 2 2 2 2 2 2 2 2 2 2 2 1 1 1 1 1 1 1 1 1 1 1 0 0 -0
4 2 2 3 4 4 4 3 3 3 3 2 2 2 2 2 2 2 2 1 1 1 1 1 1 1 1 1 1 1 1 1 1 0 0 0 0 0 0 0 0 -0 -0 -0
2 2 3 4 4 4 4 3 3 2 2 2 2 1 1 1 1 1 1 1 1 1 1 1 1 1 1 1 1 1 0 0 0 -0 -0 -0 -0 -0 -0 -1 -1 -1 -1 -1
Wind_Speed
1 1 1 1 2 2 2 3 4 3 3 4 7 9 7 4 4 4 4 4 5 5 4 4 5 5 6 5 5 5 5 5 4 3 2 2 2 1 2 2 2 2 2 3
2 1 2 2 1 2 2 4 4 3 3 4 5 8 6 2 3 4 4 4 5 4 4 4 5 6 6 6 6 6 5 5 4 2 2 1 1 1 1 1 1 2 2 3
2 1 1 1 0 2 2 3 3 4 4 2 4 4 3 1 1 1 2 3 4 5 5 5 5 6 5 6 6 5 6 5 4 3 2 2 1 1 1 1 0 1 2 2
0 1 1 1 1 2 2 2 3 4 3 2 2 3 4 2 2 1 1 2 3 4 4 5 5 5 5 5 5 5 5 5 4 4 4 3 2 2 1 1 1 1 1 2
1 1 1 1 2 2 1 1 2 3 3 3 2 4 3 2 3 3 2 2 3 3 4 4 4 4 4 4 4 5 5 5 5 4 4 4 3 2 1 1 1 1 1 1
1 1 1 1 2 1 1 1 1 2 2 3 2 4 3 2 3 3 3 3 3 3 3 3 3 3 4 4 4 4 5 5 5 5 5 5 4 3 3 2 2 2 1 1
1 1 0 1 0 1 1 1 1 1 2 2 1 4 5 1 2 3 3 3 2 2 3 3 3 3 4 4 5 5 5 5 5 5 5 5 5 4 4 4 3 3 2 2
1 2 1 1 1 1 1 2 1 2 3 2 2 5 3 0 2 3 3 2 2 2 2 2 3 3 3 4 5 5 5 5 5 5 5 5 5 4 3 4 4 4 3 3
2 2 1 0 1 2 2 2 1 1 2 4 4 4 4 2 2 3 3 3 2 2 1 2 2 3 3 4 4 5 5 5 5 5 5 5 5 5 4 4 4 4 4 3
2 3 1 0 2 0 1 2 2 2 2 4 4 5 4 4 5 4 4 3 2 1 1 1 2 3 3 3 3 4 5 5 5 5 5 4 5 5 5 4 5 4 4 4
2 3 2 2 5 5 4 3 3 3 3 4 4 3 1 4 5 5 3 2 2 2 2 2 3 3 3 3 3 4 4 4 4 4 4 5 5 5 5 5 5 5 5 5
2 2 4 4 0 2 5 5 6 4 5 4 5 5 2 4 4 4 3 3 3 3 3 3 3 3 3 3 3 3 4 4 4 4 4 5 5 5 5 6 5 5 6 5
3 3 3 3 3 3 5 5 6 5 3 6 7 6 2 2 4 5 5 4 4 4 3 3 3 3 4 4 4 4 4 4 4 4 4 4 5 5 6 6 5 6 6 6
3 5 8 8 4 3 6 7 9 8 7 9 13 13 8 6 7 6 6 5 4 4 4 4 4 4 4 4 4 4 4 4 4 4 4 5 5 5 6 5 6 6 6 6
4 6 8 12 10 9 11 12 13 15 15 13 14 15 16 11 9 9 7 6 5 5 4 5 5 5 5 5 5 5 5 4 4 5 5 6 5 5 5 5 6 6 6 7
4 5 5 9 9 11 14 18 18 19 19 21 22 21 15 10 8 8 8 6 6 6 6 6 5 5 6 5 5 5 5 4 5 6 6 6 5 5 6 6 6 6 6 7
5 5 5 8 6 8 13 15 17 13 14 14 17 14 8 6 6 7 7 6 6 6 6 6 6 6 6 6 5 6 6 5 5 6 6 6 6 6 6 6 6 7 7 7
7 6 5 6 5 12 7 1 7 12 13 14 12 10 7 8 7 7 7 7 7 7 6 6 6 6 6 6 5 5 5 5 6 6 6 6 6 6 6 6 7 7 7 7
12 9 6 5 9 13 10 4 5 8 9 9 12 13 9 5 6 6 6 7 7 7 7 6 6 6 6 6 5 5 6 6 6 7 7 6 6 7 7 7 8 7 7 7
7 9 8 7 8 9 5 1 2 4 7 3 6 7 6 3 5 5 3 5 7 7 6 6 6 6 6 5 5 5 6 7 7 7 7 6 7 7 8 8 7 7 7 7
6 7 11 13 11 11 5 3 4 6 4 1 3 5 5 7 7 6 5 6 6 7 6 6 5 6 6 5 5 6 7 8 7 6 6 7 7 7 8 7 7 6 6 7
9 8 9 9 10 10 3 5 6 5 4 4 5 6 7 8 8 7 7 7 7 6 6 6 5 6 6 5 6 7 8 7 6 6 7 7 7 7 6 7 7 6 6 7
9 9 6 9 9 4 5 6 5 5 7 7 7 8 8 8 9 9 8 8 8 7 7 6 6 7 6 6 6 8 8 6 6 7 8 8 7 7 7 7 7 6 6 6
7 6 7 9 12 11 9 10 10 9 10 10 10 9 9 9 10 9 9 9 8 8 7 6 7 7 7 6 6 8 7 6 7 7 8 7 7 7 7 6 6 6 6 6
9 6 8 13 14 12 11 10 11 11 11 11 10 9 9 10 10 10 9 9 9 8 7 6 7 8 8 7 7 7 7 6 7 8 8 7 7 7 7 7 7 8 8 7
10 11 10 12 11 10 12 10 10 10 10 10 10 10 9 10 11 11 10 8 8 8 7 7 8 8 8 8 8 7 6 7 7 7 7 6 6 6 6 6 7 8 9 9
Wind_Direction
39 148 218 262 255 279 272 267 276 288 322 283 261 274 283 275 240 234 230 221 219 218 205 184 180 171 164 166 168 168 155 151 151 153 157 154 143 120 102 72 57 42 25 14
170 223 293 293 237 220 247 265 280 292 326 293 277 281 280 260 239 238 233 220 214 206 196 187 185 176 176 174 174 171 166 165 165 164 156 149 139 135 111 88 58 27 10 2
198 351 308 211 202 230 268 266 283 297 317 272 294 263 209 184 224 248 241 230 216 209 202 193 187 183 182 183 183 178 173 170 170 162 145 141 151 165 172 176 55 20 3 353
241 299 240 230 269 267 265 261 264 281 282 277 306 263 220 201 219 241 228 201 201 199 199 192 186 185 187 189 181 179 172 171 175 176 180 186 203 216 225 229 256 320 337 334
229 275 255 255 302 278 285 306 257 261 256 265 236 254 241 178 223 235 223 206 195 193 188 184 189 191 188 182 177 176 172 174 179 189 197 204 217 228 221 221 245 272 294 316
262 268 291 298 323 268 232 244 190 201 235 252 235 247 252 199 221 219 213 208 192 185 178 175 176 180 181 178 176 176 179 184 188 197 205 213 219 223 228 240 251 258 265 274
211 182 319 261 248 139 290 275 279 245 238 249 151 248 259 240 241 231 225 219 205 184 175 179 184 186 185 183 182 184 189 196 198 204 213 217 223 226 233 245 251 257 259 259
243 221 192 240 248 231 227 269 269 276 277 286 218 242 256 47 252 241 225 215 183 167 182 197 204 203 199 197 195 196 201 206 206 212 217 222 222 225 232 239 247 252 258 264
244 239 123 212 288 237 188 200 313 269 281 269 247 260 273 200 188 182 181 178 172 162 178 213 221 220 215 207 207 207 210 213 211 212 216 222 226 226 231 239 246 253 258 263
257 263 227 230 189 140 292 169 179 209 264 266 260 248 234 183 178 170 174 181 188 202 224 248 239 228 226 219 210 208 215 219 219 216 218 222 227 230 234 237 239 244 251 254
233 244 233 209 217 213 178 189 213 221 254 263 273 254 192 196 190 188 188 202 232 248 258 263 249 231 223 219 209 207 215 220 220 223 227 229 232 233 236 238 242 244 246 246
198 237 254 241 228 296 234 224 208 227 232 235 264 271 117 212 211 211 225 260 280 275 265 255 245 230 222 223 220 219 218 220 225 226 229 233 238 237 238 242 245 244 244 242
174 208 261 229 195 197 227 225 225 240 248 231 240 255 120 211 236 240 253 274 285 280 264 252 246 235 231 231 228 226 224 225 227 226 230 235 240 241 244 248 249 245 245 245
201 228 235 255 285 213 230 227 216 213 229 243 242 258 258 256 260 260 261 267 278 275 261 256 255 246 239 237 236 234 232 229 227 229 234 240 246 249 254 256 254 250 247 247
209 248 250 263 271 263 256 248 230 227 235 245 258 262 268 271 269 268 264 266 271 271 268 266 263 259 250 248 247 244 242 236 232 237 243 247 252 255 257 256 254 253 250 248
218 250 265 268 261 260 264 256 244 242 245 250 261 268 271 277 272 264 254 252 259 267 271 271 265 262 255 254 256 251 247 243 237 241 248 253 254 256 256 256 255 254 253 251
209 219 245 267 274 281 263 250 235 232 231 237 247 256 267 268 261 258 250 244 252 264 270 270 266 263 261 259 257 254 253 247 242 246 251 252 254 256 258 258 256 254 254 252
213 214 236 268 266 250 262 181 226 231 242 232 241 256 265 270 277 266 248 250 261 267 269 272 274 273 270 264 259 257 253 246 246 249 251 252 253 256 260 258 257 257 255 251
218 214 227 238 255 268 271 234 209 226 253 235 240 257 269 288 280 260 240 249 262 270 273 276 278 275 270 264 258 253 250 246 247 250 252 252 252 257 259 258 259 260 257 255
203 215 227 233 249 257 271 196 189 216 255 242 242 260 267 245 262 268 269 269 273 277 278 280 282 275 269 266 254 246 247 247 249 252 255 255 253 253 257 259 261 260 257 256
185 204 221 234 246 263 274 150 161 227 281 3 269 269 250 244 265 294 291 282 278 281 285 286 280 272 269 264 248 247 250 252 256 258 257 256 254 254 257 260 259 258 257 257
201 203 214 222 236 252 168 156 211 268 319 291 286 279 260 262 278 282 281 279 277 281 285 284 279 275 270 256 247 253 258 264 265 262 260 259 259 258 255 255 258 256 252 253
220 219 221 218 238 278 200 224 257 276 277 281 282 282 268 269 274 276 277 278 278 278 281 281 276 275 270 257 249 257 267 270 265 263 262 263 262 260 253 251 253 253 250 250
236 229 238 254 261 266 263 263 265 265 271 277 275 273 266 266 270 271 271 273 274 273 274 274 272 271 273 268 260 262 269 266 261 262 265 264 262 263 258 253 247 245 246 248
248 223 245 259 271 282 270 264 269 272 272 272 270 267 263 265 268 268 270 270 270 270 270 267 263 267 273 275 269 267 265 259 260 263 265 265 262 261 260 256 251 248 248 245
238 235 243 260 270 273 282 288 284 277 272 270 270 269 263 259 264 267 267 267 267 268 269 266 266 268 274 276 275 271 264 256 257 261 262 262 262 260 259 262 265 252 250 254
Height
1513 1512 1510 1511 1512 1511 1510 1507 1504 1503 1505 1504 1498 1495 1494 1495 1496 1496 1496 1497 1497 1498 1499 1501 1503 1504 1506 1508 1509 1510 1510 1512 1513 1515 1515 1516 1516 1516 1516 1516 1516 1515 1515 1515
1512 1512 1513 1514 1513 1512 1510 1508 1504 1504 1506 1504 1499 1495 1492 1493 1494 1494 1495 1495 1496 1497 1498 1499 1501 1502 1504 1506 1507 1508 1509 1511 1512 1513 1514 1515 1515 1515 1515 1514 1514 1513 1513 1513
1510 1514 1515 1513 1512 1510 1509 1507 1506 1506 1506 1505 1501 1491 1490 1492 1494 1494 1494 1494 1495 1495 1496 1497 1499 1501 1503 1504 1506 1507 1507 1509 1510 1512 1512 1513 1513 1513 1513 1513 1512 1512 1511 1511
1513 1515 1514 1512 1511 1510 1506 1509 1509 1509 1504 1498 1501 1491 1486 1489 1491 1492 1492 1493 1493 1494 1495 1496 1497 1499 1501 1502 1504 1506 1507 1508 1509 1510 1511 1511 1512 1511 1511 1511 1510 1510 1509 1509
1513 1515 1514 1511 1512 1511 1509 1511 1510 1508 1505 1501 1498 1494 1483 1489 1488 1489 1491 1492 1492 1493 1494 1494 1496 1497 1499 1501 1502 1504 1505 1506 1507 1508 1509 1509 1509 1509 1508 1508 1508 1507 1507 1506
1515 1516 1515 1514 1514 1513 1512 1510 1508 1507 1503 1499 1497 1494 1483 1484 1486 1487 1489 1491 1491 1492 1493 1494 1495 1496 1498 1499 1500 1502 1503 1504 1505 1505 1506 1506 1506 1506 1506 1505 1505 1505 1504 1503
1512 1514 1515 1515 1512 1512 1511 1507 1502 1499 1497 1492 1501 1497 1484 1483 1487 1487 1489 1490 1490 1491 1491 1492 1493 1495 1496 1497 1498 1499 1501 1502 1502 1503 1503 1503 1503 1503 1503 1503 1502 1501 1501 1500
1508 1508 1513 1514 1512 1511 1510 1507 1505 1500 1493 1489 1499 1492 1481 1485 1487 1488 1489 1489 1489 1490 1490 1491 1492 1493 1494 1495 1496 1497 1498 1499 1500 1500 1500 1500 1500 1500 1500 1500 1499 1498 1497 1496
1506 1507 1514 1515 1514 1512 1509 1508 1510 1507 1508 1499 1485 1484 1481 1484 1485 1486 1487 1488 1488 1488 1489 1490 1490 1491 1492 1493 1494 1494 1495 1496 1496 1497 1497 1497 1497 1496 1496 1496 1495 1494 1493 1492
1511 1510 1512 1514 1515 1515 1513 1510 1510 1507 1502 1491 1482 1480 1475 1479 1481 1484 1485 1486 1487 1487 1487 1488 1488 1489 1489 1490 1491 1491 1492 1493 1493 1494 1493 1493 1493 1493 1492 1491 1491 1490 1489 1488
1513 1511 1511 1512 1510 1507 1512 1512 1508 1504 1502 1495 1485 1476 1474 1477 1479 1481 1483 1484 1485 1485 1485 1486 1486 1487 1487 1488 1488 1488 1489 1489 1490 1490 1490 1489 1489 1489 1488 1487 1487 1486 1485 1484
1513 1511 1507 1507 1510 1512 1509 1506 1505 1503 1501 1500 1491 1480 1476 1478 1480 1481 1482 1483 1483 1483 1483 1483 1484 1484 1484 1484 1485 1485 1485 1486 1486 1486 1486 1485 1485 1484 1484 1483 1482 1482 1481 1480
1513 1511 1506 1501 1509 1512 1509 1507 1506 1504 1502 1498 1492 1478 1477 1479 1479 1480 1481 1481 1481 1481 1481 1481 1481 1481 1481 1481 1481 1482 1482 1482 1482 1482 1481 1481 1480 1480 1479 1479 1478 1477 1476 1475
1511 1508 1504 1495 1491 1498 1502 1504 1505 1505 1500 1491 1484 1474 1474 1475 1477 1478 1479 1479 1479 1478 1478 1478 1478 1478 1478 1478 1478 1478 1478 1478 1478 1478 1477 1477 1476 1476 1475 1474 1473 1472 1471 1470
1510 1506 1502 1499 1499 1500 1497 1497 1499 1499 1491 1487 1476 1474 1469 1472 1474 1476 1476 1476 1476 1476 1475 1475 1474 1474 1474 1474 1474 1474 1474 1474 1474 1474 1473 1472 1472 1471 1470 1469 1468 1468 1466 1465
1508 1505 1504 1499 1498 1497 1494 1489 1489 1488 1486 1481 1477 1471 1468 1471 1473 1473 1473 1473 1473 1472 1472 1471 1471 1470 1470 1470 1470 1470 1469 1469 1469 1469 1469 1468 1467 1466 1465 1464 1463 1462 1461 1460
1505 1505 1503 1492 1494 1494 1484 1473 1475 1476 1474 1474 1471 1466 1467 1469 1469 1469 1469 1469 1469 1469 1468 1468 1467 1467 1466 1466 1466 1465 1465 1465 1465 1464 1464 1463 1462 1461 1460 1459 1458 1457 1456 1455
1502 1502 1500 1494 1495 1490 1464 1468 1468 1468 1467 1468 1466 1465 1466 1466 1467 1466 1466 1466 1466 1465 1465 1464 1464 1463 1463 1462 1461 1461 1460 1460 1460 1459 1458 1458 1457 1456 1455 1454 1452 1451 1450 1449
1497 1498 1496 1494 1485 1470 1463 1466 1467 1467 1464 1463 1463 1463 1464 1465 1464 1462 1462 1462 1463 1462 1462 1461 1460 1460 1458 1458 1457 1456 1455 1455 1455 1454 1454 1453 1452 1451 1449 1448 1447 1446 1444 1443
1495 1495 1494 1490 1485 1472 1459 1465 1465 1466 1461 1460 1460 1460 1462 1463 1461 1458 1459 1459 1459 1459 1458 1457 1456 1455 1454 1453 1452 1451 1451 1450 1450 1449 1449 1448 1447 1446 1445 1443 1442 1440 1439 1437
1491 1492 1490 1485 1479 1464 1461 1464 1465 1464 1456 1459 1458 1458 1459 1459 1458 1457 1456 1455 1455 1455 1454 1453 1452 1451 1450 1449 1448 1447 1446 1446 1445 1445 1444 1443 1442 1441 1439 1438 1436 1435 1433 1432
1477 1479 1480 1477 1475 1465 1460 1463 1462 1457 1458 1457 1456 1456 1456 1455 1454 1453 1452 1451 1451 1450 1450 1449 1448 1446 1446 1444 1443 1442 1442 1441 1440 1439 1438 1437 1436 1435 1434 1432 1431 1430 1428 1427
1470 1466 1464 1464 1459 1457 1457 1457 1456 1456 1455 1454 1453 1453 1452 1451 1450 1449 1448 1447 1447 1446 1445 1444 1443 1442 1441 1440 1439 1438 1437 1436 1435 1434 1433 1432 1431 1429 1428 1427 1426 1424 1423 1422
1465 1466 1464 1461 1454 1454 1454 1453 1453 1452 1451 1450 1450 1449 1448 1447 1446 1445 1444 1443 1442 1441 1440 1439 1438 1437 1436 1435 1434 1433 1432 1431 1429 1428 1427 1426 1425 1423 1422 1421 1420 1419 1418 1416
1458 1461 1459 1454 1451 1450 1448 1448 1448 1447 1446 1445 1445 1444 1443 1442 1441 1440 1439 1438 1437 1436 1435 1434 1433 1432 1431 1430 1429 1428 1427 1425 1424 1423 1421 1420 1419 1418 1416 1415 1414 1413 1412 1411
1454 1454 1453 1447 1446 1447 1444 1443 1443 1442 1440 1440 1439 1438 1437 1437 1436 1435 1433 1432 1431 1430 1430 1429 1427 1426 1425 1424 1423 1422 1421 1420 1418 1417 1415 1414 1413 1411 1410 1409 1408 1407 1406 1405